Simultaneous Nadir Overpasses (SNOs) Predictions

Prediction of SNOs between GOES-17 and NOAA-19 Satellite Orbit:

Table of predicted SNOs for the next 14.0 days since TLE Epoch: 9/14/2024
Index Date Time (GOES-17) GOES-17 Lat,Lon NOAA-19 Lat,Lon Distance(km) Time Diff (sec)
1 09/14/2024 16:39:37 0.01,-104.73 0.92,-108.83 467.97 80
2 09/15/2024 16:27:14 0.00,-104.73 0.27,-105.82 124.62 80
3 09/16/2024 16:17:31 -0.00,-104.73 -0.44,-102.81 218.94 80
4 09/19/2024 04:36:52 0.00,-104.69 -0.59,-107.43 311.23 80
5 09/20/2024 04:21:48 0.01,-104.69 0.10,-104.41 32.75 80
6 09/21/2024 04:09:24 0.01,-104.69 0.74,-101.39 376.41 80
7 09/22/2024 16:40:54 -0.01,-104.74 0.97,-108.96 481.95 80
8 09/23/2024 16:28:31 -0.01,-104.74 0.27,-105.95 138.22 80
9 09/24/2024 16:18:47 -0.01,-104.74 -0.43,-102.94 205.65 80
10 09/27/2024 04:38:03 0.00,-104.70 -0.65,-107.52 322.44 80
